Terug naar catalogus

STARLINK-34144

ActiefCommunicatieVLEO
NORAD 63958·PAYLOAD·🇺🇸 United States

Gelanceerd May 13, 2025 vanaf Cape Canaveral Space Force Station

Loading…

Volgende Passages (komende 24 uur)

TLE

VersSource: CelesTrak SupGP

Epoch: Sep 14, 2026, 21:26 UTC

1 63958C 25099G   26257.89354167  .00000239  00000+0  86486-5 0  2578
2 63958  43.0013 187.8513 0001131 261.5691 355.8436 15.27581828    15

Volg STARLINK-34144 in realtime met AllMySat

Download on the App Store